Language: 


Des rapports , des résumés tant et plus, au choix de chacun....


Données statistiques de la station
Quotidien Rapport Juin 16, 2017 Unités:  Anglais    Métrique   les deux
« Précédent Jour
Suivant Jour »
Quotidien Hebdomadaire Mensuel Annuel Actuel
  Haut: Bas: Moyen:
Température: 77.5 °F 50.5 °F 66 °F
Pt de rosée: 77 °F 48.2 °F 61.3 °F
Humidité: 98 % 44 % 85 %
Vitesse du vent: 12.3 mph 0 mph 4.7 mph
Rafales: 17.2 mph - -
Vent:- - West
Pression: 30.3 in 30 in -
Précipitation: 0 in    
Historical Graphs
 
 
Données statistiques pour Juin 16, 2017
Heure Température Point de rosée Pression Vent Vitesse du vent Refales Humidité Pluie (taux horaire)
00:02 59.5 °F 53.6 °F 30 in West 10.1 mph 15.2 mph 80 % 0 in
00:07 59.4 °F 53.6 °F 30 in West 7.8 mph 14.3 mph 81 % 0 in
00:12 59.4 °F 53.6 °F 30 in WNW 8.5 mph 13 mph 81 % 0 in
00:17 59.4 °F 53.6 °F 30 in WSW 8.1 mph 15.2 mph 81 % 0 in
00:22 59.2 °F 53.6 °F 30.1 in WSW 8.9 mph 15.2 mph 81 % 0 in
00:27 59.2 °F 53.6 °F 30.1 in West 5.6 mph 12.3 mph 82 % 0 in
00:32 59.2 °F 53.6 °F 30.1 in WSW 10.5 mph 11 mph 82 % 0 in
00:37 59 °F 53.6 °F 30.1 in WSW 10.1 mph 11 mph 82 % 0 in
00:42 59 °F 53.6 °F 30.1 in West 6.9 mph 13.2 mph 83 % 0 in
00:47 58.8 °F 55.4 °F 30.1 in West 10.7 mph 13.2 mph 84 % 0 in
00:52 58.8 °F 55.4 °F 30.1 in WSW 6 mph 10.7 mph 84 % 0 in
00:57 58.8 °F 55.4 °F 30.1 in WSW 7.8 mph 11.9 mph 84 % 0 in
01:02 58.8 °F 55.4 °F 30.1 in West 6 mph 12.8 mph 85 % 0 in
01:07 58.6 °F 55.4 °F 30.1 in WSW 10.5 mph 12.8 mph 85 % 0 in
01:12 58.6 °F 55.4 °F 30.1 in WSW 7.6 mph 10.5 mph 86 % 0 in
01:18 58.5 °F 55.4 °F 30.1 in West 6.5 mph 10.5 mph 86 % 0 in
01:23 58.5 °F 55.4 °F 30.1 in WSW 8.7 mph 12.3 mph 86 % 0 in
01:28 58.5 °F 55.4 °F 30.1 in West 6.3 mph 12.3 mph 87 % 0 in
01:33 58.3 °F 55.4 °F 30.1 in West 7.4 mph 9.8 mph 87 % 0 in
01:38 58.1 °F 55.4 °F 30.1 in West 6 mph 9.2 mph 87 % 0 in
01:43 58.1 °F 55.4 °F 30.1 in West 8.7 mph 9.2 mph 88 % 0 in
01:48 58.1 °F 55.4 °F 30.1 in WSW 10.1 mph 10.1 mph 88 % 0 in
01:53 58.1 °F 55.4 °F 30.1 in West 10.5 mph 10.5 mph 89 % 0 in
01:58 58.1 °F 55.4 °F 30.1 in West 6 mph 10.5 mph 89 % 0 in
02:03 57.9 °F 55.4 °F 30.1 in West 7.6 mph 10.5 mph 89 % 0 in
02:08 57.9 °F 55.4 °F 30.1 in WSW 6 mph 8.5 mph 90 % 0 in
02:13 57.7 °F 55.4 °F 30.1 in West 5.6 mph 8.5 mph 90 % 0 in
02:18 57.7 °F 55.4 °F 30.1 in West 6.9 mph 7.8 mph 90 % 0 in
02:23 57.6 °F 55.4 °F 30.1 in West 6.5 mph 7.8 mph 90 % 0 in
02:28 57.6 °F 55.4 °F 30.1 in West 4.9 mph 7.6 mph 90 % 0 in
02:33 57.2 °F 55.4 °F 30.1 in WSW 4.9 mph 7.4 mph 90 % 0 in
02:38 57 °F 55.4 °F 30.1 in West 5.4 mph 6.3 mph 91 % 0 in
02:43 56.8 °F 55.4 °F 30.1 in Calm   6 mph 91 % 0 in
02:48 56.7 °F 55.4 °F 30.1 in West 3.8 mph 6.3 mph 91 % 0 in
02:53 56.5 °F 55.4 °F 30.1 in West 5.6 mph 6.3 mph 91 % 0 in
02:59 56.5 °F 55.4 °F 30.1 in WSW 6.3 mph 7.6 mph 92 % 0 in
03:04 56.3 °F 55.4 °F 30.1 in WSW 5.8 mph 7.6 mph 92 % 0 in
03:09 56.3 °F 55.4 °F 30.1 in West 4.3 mph 6.5 mph 92 % 0 in
03:14 56.1 °F 53.6 °F 30.1 in Calm   5.8 mph 92 % 0 in
03:19 55.9 °F 53.6 °F 30.1 in WSW 2.7 mph 4.3 mph 92 % 0 in
03:24 55.6 °F 53.6 °F 30.1 in Calm   4.3 mph 92 % 0 in
03:29 55.4 °F 53.6 °F 30.1 in West 1.3 mph 4 mph 93 % 0 in
03:34 55.2 °F 53.6 °F 30.1 in Calm   1.3 mph 93 % 0 in
03:39 55.2 °F 53.6 °F 30.1 in Calm   5.4 mph 93 % 0 in
03:44 55.2 °F 53.6 °F 30.1 in West 4.7 mph 5.4 mph 93 % 0 in
03:49 54.9 °F 53.6 °F 30.1 in West 4.3 mph 5.4 mph 93 % 0 in
03:51 54.9 °F 53.6 °F 30.1 in West 3.6 mph 5.4 mph 93 % 0 in
03:56 54.7 °F 53.6 °F 30.1 in West 3.6 mph 5.4 mph 94 % 0 in
04:01 54.7 °F 53.6 °F 30.1 in West 4 mph 5.4 mph 94 % 0 in
04:06 54.5 °F 53.6 °F 30.1 in West 3.8 mph 5.4 mph 94 % 0 in
04:11 54 °F 51.8 °F 30.1 in Calm   5.4 mph 93 % 0 in
04:16 53.4 °F 51.8 °F 30.1 in Calm   4.3 mph 94 % 0 in
04:21 53.2 °F 51.8 °F 30.1 in Calm     94 % 0 in
04:26 53.2 °F 51.8 °F 30.1 in Calm     94 % 0 in
04:31 53.4 °F 51.8 °F 30.1 in Calm     94 % 0 in
04:37 53.4 °F 51.8 °F 30.1 in Calm     95 % 0 in
04:42 53.2 °F 51.8 °F 30.1 in West 2.9 mph 4.3 mph 95 % 0 in
04:47 53.1 °F 51.8 °F 30.1 in West 0.9 mph 4.3 mph 95 % 0 in
04:52 52.9 °F 51.8 °F 30.1 in Calm   5.4 mph 95 % 0 in
04:57 52.7 °F 51.8 °F 30.1 in Calm   5.4 mph 95 % 0 in
05:02 52.3 °F 51.8 °F 30.1 in Calm     95 % 0 in
05:07 52.2 °F 50 °F 30.1 in Calm     94 % 0 in
05:12 51.8 °F 50 °F 30.1 in Calm     94 % 0 in
05:17 51.6 °F 50 °F 30.1 in Calm     95 % 0 in
05:22 51.4 °F 50 °F 30.1 in Calm     95 % 0 in
05:27 51.3 °F 50 °F 30.1 in Calm     94 % 0 in
05:32 51.1 °F 50 °F 30.1 in Calm     94 % 0 in
05:37 50.9 °F 50 °F 30.1 in Calm   3.6 mph 94 % 0 in
05:42 50.7 °F 48.2 °F 30.1 in Calm   3.6 mph 94 % 0 in
05:47 50.5 °F 48.2 °F 30.1 in Calm   2.7 mph 94 % 0 in
05:52 50.7 °F 50 °F 30.1 in Calm   4 mph 95 % 0 in
05:57 51.1 °F 50 °F 30.1 in West 2.9 mph 5.6 mph 95 % 0 in
06:02 51.4 °F 50 °F 30.1 in West 5.6 mph 6 mph 95 % 0 in
06:07 51.8 °F 50 °F 30.1 in WSW 5.8 mph 6.3 mph 95 % 0 in
06:12 52.2 °F 51.8 °F 30.1 in Calm   6.3 mph 95 % 0 in
06:17 52.3 °F 51.8 °F 30.1 in Calm   5.8 mph 95 % 0 in
06:22 52.7 °F 51.8 °F 30.1 in Calm   3.6 mph 95 % 0 in
06:27 52.9 °F 51.8 °F 30.1 in WSW 4.3 mph 4.3 mph 95 % 0 in
06:32 53.1 °F 51.8 °F 30.1 in West 5.6 mph 6.3 mph 95 % 0 in
06:38 53.6 °F 51.8 °F 30.2 in West 4.3 mph 6.5 mph 94 % 0 in
06:43 54.1 °F 53.6 °F 30.2 in WSW 3.8 mph 6.5 mph 94 % 0 in
06:48 54.5 °F 53.6 °F 30.2 in WSW 6.5 mph 6.5 mph 94 % 0 in
06:53 55 °F 53.6 °F 30.2 in West 5.4 mph 6.5 mph 93 % 0 in
06:58 55.6 °F 53.6 °F 30.2 in West 4.9 mph 8.1 mph 93 % 0 in
07:03 55.9 °F 53.6 °F 30.2 in SW 3.4 mph 8.1 mph 92 % 0 in
07:08 56.7 °F 55.4 °F 30.2 in West 4.9 mph 6.5 mph 92 % 0 in
07:13 57 °F 55.4 °F 30.2 in West 6 mph 8.9 mph 91 % 0 in
07:18 57.6 °F 55.4 °F 30.2 in West 6 mph 8.9 mph 90 % 0 in
07:23 57.9 °F 55.4 °F 30.2 in WNW 5.6 mph 10.1 mph 88 % 0 in
07:28 58.6 °F 55.4 °F 30.2 in WNW 7.2 mph 10.1 mph 87 % 0 in
07:33 59 °F 55.4 °F 30.2 in WSW 4.7 mph 8.1 mph 86 % 0 in
07:38 59.7 °F 55.4 °F 30.2 in WNW 4.3 mph 8.1 mph 85 % 0 in
07:43 60.1 °F 55.4 °F 30.2 in WNW 5.6 mph 9.6 mph 83 % 0 in
07:48 60.4 °F 55.4 °F 30.2 in West 3.8 mph 9.6 mph 82 % 0 in
07:53 60.6 °F 55.4 °F 30.2 in West 4 mph 7.6 mph 80 % 0 in
07:58 61 °F 55.4 °F 30.2 in NW 2.5 mph 7.4 mph 79 % 0 in
08:03 61.3 °F 55.4 °F 30.2 in West 5.6 mph 8.5 mph 78 % 0 in
08:08 61.5 °F 55.4 °F 30.2 in West 4 mph 8.5 mph 77 % 0 in
08:13 62.2 °F 55.4 °F 30.2 in NNW 3.6 mph 6.5 mph 77 % 0 in
08:18 62.6 °F 55.4 °F 30.2 in WNW 7.4 mph 8.1 mph 74 % 0 in
08:24 63 °F 55.4 °F 30.2 in West 3.4 mph 8.1 mph 73 % 0 in
08:29 63.5 °F 55.4 °F 30.2 in NNW 4 mph 7.4 mph 74 % 0 in
08:34 63.9 °F 55.4 °F 30.2 in WSW 3.8 mph 8.5 mph 73 % 0 in
08:39 64.4 °F 55.4 °F 30.2 in WNW 6 mph 8.5 mph 72 % 0 in
08:44 64.6 °F 55.4 °F 30.2 in NE 1.3 mph 7.4 mph 71 % 0 in
08:49 65.1 °F 55.4 °F 30.2 in West 4.9 mph 7.8 mph 70 % 0 in
08:54 65.1 °F 55.4 °F 30.2 in NNW 6 mph 8.7 mph 69 % 0 in
08:59 65.3 °F 55.4 °F 30.2 in WNW 3.8 mph 10.5 mph 69 % 0 in
09:04 65.5 °F 55.4 °F 30.2 in North 3.8 mph 10.7 mph 68 % 0 in
09:09 66 °F 55.4 °F 30.2 in West 2 mph 10.7 mph 68 % 0 in
09:14 66 °F 55.4 °F 30.2 in NW 5.8 mph 8.1 mph 67 % 0 in
09:19 66 °F 55.4 °F 30.2 in West 0.9 mph 9.8 mph 66 % 0 in
09:24 65.5 °F 53.6 °F 30.2 in WNW 3.4 mph 9.8 mph 66 % 0 in
09:29 66.4 °F 55.4 °F 30.2 in East 1.6 mph 8.7 mph 67 % 0 in
09:34 66.9 °F 55.4 °F 30.2 in West 4.3 mph 7.8 mph 66 % 0 in
09:39 67.3 °F 55.4 °F 30.2 in WNW 3.8 mph 7.8 mph 65 % 0 in
09:44 67.5 °F 55.4 °F 30.2 in West 3.1 mph 7.8 mph 65 % 0 in
09:49 67.6 °F 55.4 °F 30.2 in WNW 4.9 mph 7.8 mph 63 % 0 in
09:54 67.5 °F 55.4 °F 30.2 in West 3.6 mph 7.8 mph 63 % 0 in
09:59 68.4 °F 55.4 °F 30.2 in WSW 3.4 mph 7.8 mph 63 % 0 in
10:04 67.3 °F 53.6 °F 30.2 in WNW 4.3 mph 8.7 mph 62 % 0 in
10:09 67.8 °F 55.4 °F 30.2 in North 3.1 mph 8.7 mph 63 % 0 in
10:14 67.5 °F 53.6 °F 30.2 in WSW 8.5 mph 8.7 mph 62 % 0 in
10:19 67.6 °F 53.6 °F 30.2 in NW 7.4 mph 8.7 mph 62 % 0 in
10:24 68.2 °F 55.4 °F 30.2 in SW 7.8 mph 9.2 mph 62 % 0 in
10:30 68.5 °F 55.4 °F 30.2 in NNE 2 mph 9.2 mph 61 % 0 in
10:35 68.2 °F 53.6 °F 30.2 in West 3.6 mph 7.6 mph 61 % 0 in
10:40 68.2 °F 53.6 °F 30.2 in NW 4.9 mph 7.6 mph 61 % 0 in
10:45 68.9 °F 55.4 °F 30.2 in WNW 6 mph 9.8 mph 59 % 0 in
10:50 69.1 °F 53.6 °F 30.2 in NE 3.1 mph 9.8 mph 58 % 0 in
10:55 68.2 °F 53.6 °F 30.2 in WNW 4 mph 9.8 mph 58 % 0 in
11:00 68.9 °F 55.4 °F 30.2 in West 5.4 mph 9.8 mph 59 % 0 in
11:05 69.8 °F 53.6 °F 30.2 in NW 7.8 mph 9.8 mph 56 % 0 in
11:10 70.3 °F 53.6 °F 30.2 in WNW 2.5 mph 9.8 mph 54 % 0 in
11:15 69.1 °F 51.8 °F 30.2 in West 5.4 mph 7.4 mph 54 % 0 in
11:20 68.5 °F 51.8 °F 30.2 in NNW 3.8 mph 8.7 mph 55 % 0 in
11:25 68 °F 51.8 °F 30.2 in SSW 3.4 mph 8.7 mph 55 % 0 in
11:30 67.6 °F 51.8 °F 30.2 in West 6.3 mph 7.8 mph 56 % 0 in
11:35 69.6 °F 53.6 °F 30.2 in WNW 4.3 mph 12.3 mph 57 % 0 in
11:40 70.7 °F 53.6 °F 30.2 in West 5.4 mph 12.3 mph 54 % 0 in
11:45 69.3 °F 51.8 °F 30.2 in NNW 6.7 mph 9.6 mph 53 % 0 in
11:50 70.2 °F 51.8 °F 30.2 in NW 3.6 mph 8.7 mph 52 % 0 in
11:55 69.3 °F 51.8 °F 30.2 in WNW 3.1 mph 10.5 mph 52 % 0 in
12:00 69.6 °F 51.8 °F 30.2 in WNW 6.3 mph 10.5 mph 52 % 0 in
12:05 69.1 °F 50 °F 30.2 in West 11 mph 11 mph 50 % 0 in
12:10 69.6 °F 51.8 °F 30.2 in SW 9.6 mph 12.5 mph 52 % 0 in
12:15 68.9 °F 51.8 °F 30.2 in WNW 4.3 mph 12.5 mph 52 % 0 in
12:20 69.3 °F 51.8 °F 30.2 in West 2.9 mph 7.6 mph 53 % 0 in
12:25 72 °F 55.4 °F 30.2 in West 5.4 mph 8.9 mph 53 % 0 in
12:30 71.6 °F 51.8 °F 30.2 in West 10.5 mph 17.2 mph 49 % 0 in
12:35 70.7 °F 50 °F 30.2 in WSW 8.1 mph 17.2 mph 48 % 0 in
12:41 70.5 °F 50 °F 30.2 in WSW 3.4 mph 13 mph 48 % 0 in
12:46 70.7 °F 50 °F 30.2 in West 6.3 mph 8.9 mph 47 % 0 in
12:51 69.8 °F 48.2 °F 30.2 in WNW 3.1 mph 10.5 mph 47 % 0 in
12:56 69.3 °F 48.2 °F 30.2 in NNW 7.2 mph 10.5 mph 48 % 0 in
13:01 70.2 °F 50 °F 30.2 in NW 5.6 mph 7.4 mph 48 % 0 in
13:06 71.4 °F 51.8 °F 30.2 in NW 5.8 mph 11.4 mph 48 % 0 in
13:11 72.3 °F 51.8 °F 30.2 in WNW 5.6 mph 11.4 mph 47 % 0 in
13:16 71.2 °F 50 °F 30.2 in West 6.5 mph 11 mph 46 % 0 in
13:21 70.2 °F 48.2 °F 30.2 in WSW 6.3 mph 13.2 mph 46 % 0 in
13:26 70.7 °F 50 °F 30.2 in WNW 7.6 mph 13.2 mph 47 % 0 in
13:31 71.4 °F 50 °F 30.2 in West 8.7 mph 8.7 mph 47 % 0 in
13:36 72.5 °F 51.8 °F 30.2 in WSW 2.9 mph 9.2 mph 47 % 0 in
13:41 71.2 °F 50 °F 30.2 in WNW 10.7 mph 11 mph 46 % 0 in
13:46 69.8 °F 48.2 °F 30.2 in WNW 6.3 mph 11.2 mph 45 % 0 in
13:51 69.4 °F 48.2 °F 30.2 in North 7.4 mph 11.2 mph 46 % 0 in
13:56 70.7 °F 50 °F 30.2 in West 6.5 mph 10.5 mph 46 % 0 in
14:01 71.4 °F 50 °F 30.2 in West 8.5 mph 12.8 mph 46 % 0 in
14:06 71.6 °F 50 °F 30.2 in North 7.4 mph 12.8 mph 47 % 0 in
14:11 73 °F 51.8 °F 30.2 in NNE 3.6 mph 10.3 mph 46 % 0 in
14:17 74.1 °F 51.8 °F 30.2 in NNW 5.8 mph 10.5 mph 45 % 0 in
14:22 72.3 °F 50 °F 30.2 in West 10.1 mph 11 mph 44 % 0 in
14:27 71.2 °F 48.2 °F 30.2 in NW 8.1 mph 12.5 mph 44 % 0 in
14:32 68.2 °F 68 °F 30.2 in West 4.9 mph 12.5 mph 98 % 0 in
14:37 66.4 °F 66.2 °F 30.2 in North 6.3 mph 8.9 mph 98 % 0 in
14:42 63.7 °F 64.4 °F 30.2 in NNW 8.1 mph 9.6 mph 98 % 0 in
14:47 71.1 °F 71.6 °F 30.2 in NNW 4.3 mph 11 mph 98 % 0 in
14:52 68.7 °F 68 °F 30.2 in West 5.6 mph 11 mph 98 % 0 in
14:57 77.5 °F 77 °F 30.2 in West 3.1 mph 10.7 mph 98 % 0 in
14:58 72.9 °F 73.4 °F 30.2 in North 4.3 mph 10.3 mph 98 % 0 in
15:03 68.7 °F 68 °F 30.2 in North 6.9 mph 9.8 mph 98 % 0 in
15:08 74.8 °F 75.2 °F 30.2 in WNW 7.2 mph 11 mph 98 % 0 in
15:13 75.6 °F 75.2 °F 30.2 in NNW 7.4 mph 11 mph 98 % 0 in
15:18 75.6 °F 75.2 °F 30.2 in WNW 6.7 mph 11 mph 98 % 0 in
15:20 75.6 °F 75.2 °F 30.2 in NW 4.9 mph 11 mph 98 % 0 in
15:25 75.6 °F 75.2 °F 30.2 in NNE 5.4 mph 10.3 mph 98 % 0 in
15:30 72.1 °F 71.6 °F 30.2 in NNE 3.1 mph 10.3 mph 98 % 0 in
15:35 71.6 °F 71.6 °F 30.2 in NNW 4.3 mph 11 mph 98 % 0 in
15:40 72 °F 71.6 °F 30.2 in WNW 5.4 mph 11 mph 98 % 0 in
15:45 72.7 °F 73.4 °F 30.2 in West 7.4 mph 9.8 mph 98 % 0 in
15:50 73 °F 73.4 °F 30.2 in NE 6.3 mph 9.8 mph 98 % 0 in
15:55 73 °F 73.4 °F 30.2 in NW 7.6 mph 9.8 mph 98 % 0 in
16:00 73 °F 73.4 °F 30.2 in North 4.9 mph 9.6 mph 98 % 0 in
16:05 73 °F 73.4 °F 30.2 in NNW 5.4 mph 8.1 mph 98 % 0 in
16:10 73 °F 73.4 °F 30.2 in WNW 3.4 mph 8.1 mph 98 % 0 in
16:15 73 °F 73.4 °F 30.2 in North 5.8 mph 8.9 mph 98 % 0 in
16:20 73 °F 73.4 °F 30.2 in NNW 7.6 mph 9.6 mph 98 % 0 in
16:25 73 °F 73.4 °F 30.2 in North 3.6 mph 9.6 mph 98 % 0 in
16:30 73 °F 73.4 °F 30.2 in NNW 5.4 mph 8.7 mph 98 % 0 in
16:35 73 °F 73.4 °F 30.2 in NNW 6.3 mph 7.8 mph 98 % 0 in
16:38 73 °F 73.4 °F 30.2 in NNW 6 mph 8.7 mph 98 % 0 in
16:44 73 °F 73.4 °F 30.2 in ENE 6 mph 8.7 mph 98 % 0 in
16:49 73 °F 73.4 °F 30.2 in NNW 2.9 mph 10.1 mph 98 % 0 in
16:54 73 °F 73.4 °F 30.2 in NNW 5.8 mph 10.1 mph 98 % 0 in
16:59 73 °F 73.4 °F 30.2 in North 4.9 mph 9.6 mph 98 % 0 in
17:04 73 °F 73.4 °F 30.2 in NNW 2 mph 9.6 mph 98 % 0 in
17:09 73 °F 73.4 °F 30.3 in NW 7.6 mph 9.6 mph 98 % 0 in
17:14 73 °F 73.4 °F 30.3 in West 1.3 mph 9.6 mph 98 % 0 in
17:19 73 °F 73.4 °F 30.3 in NW 6 mph 7.8 mph 98 % 0 in
17:24 73 °F 73.4 °F 30.2 in NNW 3.4 mph 7.8 mph 98 % 0 in
17:29 73 °F 73.4 °F 30.2 in NNW 4.3 mph 7.2 mph 98 % 0 in
17:34 73 °F 73.4 °F 30.2 in NW 3.6 mph 7.2 mph 98 % 0 in
17:39 73 °F 73.4 °F 30.3 in North 2.9 mph 7.8 mph 98 % 0 in
17:44 73 °F 73.4 °F 30.3 in WNW 4 mph 7.8 mph 98 % 0 in
17:49 73 °F 73.4 °F 30.3 in NNW 6.3 mph 8.7 mph 98 % 0 in
17:54 73 °F 73.4 °F 30.3 in NNW 5.4 mph 9.6 mph 98 % 0 in
17:59 73 °F 73.4 °F 30.3 in West 4 mph 9.6 mph 98 % 0 in
18:04 73 °F 73.4 °F 30.3 in NW 4.9 mph 6.3 mph 98 % 0 in
18:09 73 °F 73.4 °F 30.3 in NNE 1.1 mph 7.6 mph 98 % 0 in
18:14 73 °F 73.4 °F 30.3 in NNW 2.7 mph 7.6 mph 98 % 0 in
18:19 73 °F 73.4 °F 30.3 in NW 5.4 mph 7.4 mph 98 % 0 in
18:24 73 °F 73.4 °F 30.3 in North 1.3 mph 7.4 mph 98 % 0 in
18:29 73 °F 73.4 °F 30.3 in North 6.5 mph 7.2 mph 98 % 0 in
18:34 73 °F 73.4 °F 30.3 in North 3.8 mph 7.2 mph 98 % 0 in
18:39 73 °F 73.4 °F 30.3 in NNW 3.6 mph 6.5 mph 98 % 0 in
18:44 73 °F 73.4 °F 30.3 in North 6.3 mph 8.5 mph 98 % 0 in
18:49 73 °F 73.4 °F 30.3 in NW 6 mph 8.5 mph 98 % 0 in
18:54 73 °F 73.4 °F 30.3 in NNW 1.6 mph 7.2 mph 98 % 0 in
18:59 73 °F 73.4 °F 30.3 in NNW 4.3 mph 7.4 mph 98 % 0 in
19:04 73 °F 73.4 °F 30.3 in NE 4.9 mph 7.4 mph 98 % 0 in
19:10 73 °F 73.4 °F 30.3 in West 4 mph 7.4 mph 98 % 0 in
19:15 73 °F 73.4 °F 30.3 in NNW 3.1 mph 5.6 mph 98 % 0 in
19:20 73 °F 73.4 °F 30.3 in NNW 1.3 mph 7.2 mph 98 % 0 in
19:25 73 °F 73.4 °F 30.3 in West 3.6 mph 7.2 mph 98 % 0 in
19:30 73 °F 73.4 °F 30.3 in NNW 2.7 mph 4.7 mph 98 % 0 in
19:35 73 °F 73.4 °F 30.3 in North 2.9 mph 4.3 mph 98 % 0 in
19:40 73 °F 73.4 °F 30.3 in West 1.6 mph 4.9 mph 98 % 0 in
19:45 73 °F 73.4 °F 30.3 in Calm   4.9 mph 98 % 0 in
19:50 73 °F 73.4 °F 30.3 in North 2 mph 5.8 mph 98 % 0 in
19:51 73 °F 73.4 °F 30.3 in Calm   5.8 mph 98 % 0 in
19:56 73 °F 73.4 °F 30.3 in West 3.8 mph 5.8 mph 98 % 0 in
20:01 73 °F 73.4 °F 30.3 in Calm   6.3 mph 98 % 0 in
20:06 73 °F 73.4 °F 30.3 in WNW 3.4 mph 6.3 mph 98 % 0 in
20:11 73 °F 73.4 °F 30.3 in WNW 1.6 mph 7.2 mph 98 % 0 in
20:16 73 °F 73.4 °F 30.3 in NNW 2.9 mph 7.2 mph 98 % 0 in
20:21 73 °F 73.4 °F 30.3 in WNW 0.9 mph 3.8 mph 98 % 0 in
20:26 73 °F 73.4 °F 30.3 in NNW 2.7 mph 3.8 mph 98 % 0 in
20:31 73 °F 73.4 °F 30.3 in West 2.7 mph 4 mph 98 % 0 in
20:34 73 °F 73.4 °F 30.3 in WSW 2.9 mph 5.4 mph 98 % 0 in
20:39 73 °F 73.4 °F 30.3 in WSW 4.3 mph 7.2 mph 98 % 0 in
20:44 73 °F 73.4 °F 30.3 in West 6.5 mph 8.5 mph 98 % 0 in
20:49 73 °F 73.4 °F 30.3 in West 8.5 mph 10.1 mph 98 % 0 in
20:54 73 °F 73.4 °F 30.2 in West 7.6 mph 10.1 mph 98 % 0 in
20:59 73 °F 73.4 °F 30.2 in West 5.6 mph 10.3 mph 98 % 0 in
21:04 73 °F 73.4 °F 30.2 in West 5.6 mph 10.3 mph 98 % 0 in
21:09 73 °F 73.4 °F 30.2 in West 8.1 mph 8.1 mph 98 % 0 in
21:14 73 °F 73.4 °F 30.2 in WSW 7.8 mph 8.1 mph 98 % 0 in
21:19 73 °F 73.4 °F 30.2 in West 6.3 mph 8.1 mph 98 % 0 in
21:24 73 °F 73.4 °F 30.3 in West 12.3 mph 12.3 mph 98 % 0 in
21:29 73 °F 73.4 °F 30.3 in WSW 8.5 mph 12.3 mph 98 % 0 in
21:34 73 °F 73.4 °F 30.3 in West 7.8 mph 10.3 mph 98 % 0 in
21:40 73 °F 73.4 °F 30.3 in West 5.8 mph 10.3 mph 98 % 0 in
21:45 73 °F 73.4 °F 30.3 in WSW 8.7 mph 8.9 mph 98 % 0 in
21:50 73 °F 73.4 °F 30.3 in WSW 5.4 mph 8.9 mph 98 % 0 in
21:55 73 °F 73.4 °F 30.3 in WSW 4.9 mph 8.1 mph 98 % 0 in
22:00 73 °F 73.4 °F 30.3 in West 4.9 mph 6.5 mph 98 % 0 in
22:05 73 °F 73.4 °F 30.3 in WSW 5.8 mph 6.3 mph 98 % 0 in
22:10 73 °F 73.4 °F 30.3 in West 5.6 mph 7.6 mph 98 % 0 in
22:15 73 °F 73.4 °F 30.3 in WSW 4.9 mph 7.6 mph 98 % 0 in
22:20 73 °F 73.4 °F 30.3 in WSW 3.6 mph 6 mph 98 % 0 in
22:25 73 °F 73.4 °F 30.3 in West 4.3 mph 5.4 mph 98 % 0 in
22:28 73 °F 73.4 °F 30.3 in West 3.8 mph 5.4 mph 98 % 0 in
22:33 73 °F 73.4 °F 30.3 in West 6.3 mph 6.3 mph 98 % 0 in
22:38 73 °F 73.4 °F 30.3 in West 4 mph 6.3 mph 98 % 0 in
22:43 73 °F 73.4 °F 30.3 in Calm   6 mph 98 % 0 in
22:48 73 °F 73.4 °F 30.3 in WSW 4.9 mph 4.9 mph 98 % 0 in
22:53 73 °F 73.4 °F 30.3 in West 4 mph 5.8 mph 98 % 0 in
22:58 73 °F 73.4 °F 30.3 in WSW 5.6 mph 5.8 mph 98 % 0 in
23:03 73 °F 73.4 °F 30.3 in West 4.9 mph 5.6 mph 98 % 0 in
23:08 73 °F 73.4 °F 30.3 in WSW 5.6 mph 5.8 mph 98 % 0 in
23:13 73 °F 73.4 °F 30.3 in West 4 mph 5.8 mph 98 % 0 in
23:18 73 °F 73.4 °F 30.3 in WSW 5.4 mph 6.5 mph 98 % 0 in
23:23 73 °F 73.4 °F 30.3 in West 6 mph 6.7 mph 98 % 0 in
23:28 73 °F 73.4 °F 30.3 in West 4.3 mph 6.7 mph 98 % 0 in
23:33 73 °F 73.4 °F 30.3 in West 6.3 mph 6.3 mph 98 % 0 in
23:38 73 °F 73.4 °F 30.3 in WSW 5.4 mph 7.8 mph 98 % 0 in
23:43 73 °F 73.4 °F 30.3 in West 5.8 mph 7.8 mph 98 % 0 in
23:48 73 °F 73.4 °F 30.3 in WSW 5.6 mph 7.6 mph 98 % 0 in
23:53 73 °F 73.4 °F 30.3 in West 6.3 mph 7.6 mph 98 % 0 in
23:58 73 °F 73.4 °F 30.3 in West 4.9 mph 7.8 mph 98 % 0 in
Le Gheer Warneton
Courtoisie de Weather Underground - 2.25 mb

Mise a jour : 18/12/2017 04:10:17
Généré par Cumulus 1.9.4 (1099)